Location: Biltmore Gardens
(41.6070°N, 83.4666°W)
Time: 14:34:13
(UTC+00:00)

Cosmos 1378 - Pass Details

Date: 14 July 2020
Orbit: 493 x 501 km, 82.5° (Epoch: 12 August)

Event Time Altitude Azimuth Distance (km) Brightness Sun altitude
Rises 08:10:44 0° 358° (N) 2,605 7.6 -17.8°
Reaches altitude 10° 08:12:56 10° 5° (N) 1,716 6.7 -17.5°
Maximum altitude 08:16:33 44° 79° (E) 702 4.2 -17.1°
Enters shadow 08:20:06 10° 152° (SSE) 1,691 5.6 -16.7°
